Weather History for Cherokee, IA

Change the Weather History Date:

Tuesday, May 1, 2012

  Actual Average Record
Temperature  
Mean Temperature 69 °F -  
Max Temperature 83 °F 65 °F 92 °F (1959)
Min Temperature 55 °F 39 °F 24 °F (1966)
Cooling Degree Days 4    
Growing Degree Days 19 (Base 50)    
Moisture  
Dew Point 57 °F    
Average Humidity 70    
Maximum Humidity 92    
Minimum Humidity 42    
Precipitation  
Precipitation 0.18 in - - ()
Sea Level Pressure  
Sea Level Pressure 29.67 in    
Wind  
Wind Speed 12 mph (South)    
Max Wind Speed 21 mph    
Max Gust Speed 34 mph    
Visibility 8 miles    
Events Rain , Thunderstorm    
Averages and records for this station are not official NWS values.
T = Trace of Precipitation, MM = Missing Value Source: NWS Daily Summary

Daily Weather History Graph

Daily Weather History Graph

Search for Another Location

Airport:

Trip Planner

Search our weather history database for the weather conditions in past years. The results will help you decide how hot, cold, wet, or windy it might be!

Date:

Astronomy

May. 01, 2012 Rise Set
Actual Time 6:15 AM CDT 8:23 PM CDT
Civil Twilight 5:45 AM CDT 8:54 PM CDT
Nautical Twilight 5:07 AM CDT 9:32 PM CDT
Astronomical Twilight 4:25 AM CDT 10:14 PM CDT
Moon 3:21 PM CDT (5/1) 3:20 AM CDT (5/1)
Length of Visible Light 15h 09m
Length of Day
14h 07m
Waxing Gibbous, 74% of the Moon is Illuminated
May 1
Waxing Gibbous
May 5
Full
May 12
Last Quarter
May 20
New
May 28
First Quarter

Hourly Weather History & Observations

Time (CDT) Temp. Heat Index Dew Point Humidity Pressure Visibility Wind Dir Wind Speed Gust Speed Precip Events Conditions
12:15 AM 57.6 °F - 52.7 °F 84% 29.80 in 7.0 mi South 8.1 mph - N/A   Clear
12:35 AM 57.2 °F - 52.7 °F 85% 29.81 in 7.0 mi South 9.2 mph - N/A   Clear
12:55 AM 56.8 °F - 52.7 °F 86% 29.79 in 10.0 mi SSE 10.4 mph - N/A   Clear
1:15 AM 56.5 °F - 52.7 °F 87% 29.79 in 10.0 mi South 10.4 mph - N/A   Clear
1:35 AM 56.3 °F - 52.7 °F 88% 29.80 in 10.0 mi South 11.5 mph - N/A   Clear
1:55 AM 56.7 °F - 52.7 °F 87% 29.81 in 10.0 mi South 12.7 mph - N/A   Clear
2:15 AM 56.5 °F - 52.7 °F 87% 29.80 in 10.0 mi SSE 10.4 mph - N/A   Clear
2:35 AM 55.9 °F - 52.7 °F 89% 29.78 in 10.0 mi SSW 3.5 mph - N/A   Clear
2:55 AM 55.9 °F - 52.7 °F 89% 29.78 in 10.0 mi South 10.4 mph - N/A   Clear
3:15 AM 55.9 °F - 52.9 °F 89% 29.78 in 7.0 mi South 6.9 mph - N/A   Clear
3:35 AM 56.5 °F - 53.6 °F 90% 29.77 in 7.0 mi South 9.2 mph - N/A   Mostly Cloudy
3:55 AM 56.5 °F - 53.6 °F 90% 29.77 in 7.0 mi South 6.9 mph - N/A   Mostly Cloudy
4:15 AM 56.5 °F - 53.6 °F 90% 29.77 in 5.0 mi South 9.2 mph - N/A   Mostly Cloudy
4:35 AM 57.6 °F - 54.5 °F 90% 29.76 in 5.0 mi South 11.5 mph - N/A   Mostly Cloudy
4:55 AM 57.9 °F - 54.7 °F 89% 29.76 in 5.0 mi South 9.2 mph - N/A   Overcast
5:15 AM 57.4 °F - 54.3 °F 90% 29.76 in 5.0 mi South 8.1 mph - N/A   Overcast
5:35 AM 56.3 °F - 53.6 °F 91% 29.75 in 5.0 mi South 8.1 mph - N/A   Scattered Clouds
5:55 AM 55.9 °F - 53.6 °F 92% 29.75 in 5.0 mi South 6.9 mph - N/A   Clear
6:15 AM 56.5 °F - 54.1 °F 92% 29.75 in 4.0 mi South 9.2 mph - N/A   Scattered Clouds
6:35 AM 57.2 °F - 54.7 °F 91% 29.74 in 3.0 mi South 10.4 mph - N/A   Overcast
6:55 AM 58.6 °F - 55.9 °F 91% 29.75 in 3.0 mi South 10.4 mph - N/A   Overcast
7:35 AM 60.1 °F - 57.2 °F 90% 29.74 in 3.0 mi South 12.7 mph 18.4 mph N/A   Overcast
7:55 AM 60.3 °F - 57.4 °F 90% 29.73 in 3.0 mi South 16.1 mph 24.2 mph N/A   Overcast
8:15 AM 60.4 °F - 57.4 °F 90% 29.73 in 4.0 mi South 13.8 mph 18.4 mph N/A   Overcast
8:35 AM 60.8 °F - 57.6 °F 89% 29.72 in 4.0 mi South 16.1 mph 20.7 mph N/A   Overcast
9:35 AM 63.9 °F - 58.3 °F 82% 29.72 in 5.0 mi South 15.0 mph - N/A   Haze
9:55 AM 65.5 °F - 58.6 °F 79% 29.71 in 5.0 mi South 13.8 mph 20.7 mph N/A   Haze
10:15 AM 67.1 °F - 58.3 °F 73% 29.70 in 7.0 mi SSW 15.0 mph - N/A   Scattered Clouds
10:35 AM 68.9 °F - 58.8 °F 70% 29.70 in 7.0 mi South 12.7 mph - N/A   Clear
10:55 AM 70.7 °F - 59.2 °F 67% 29.69 in 7.0 mi South 16.1 mph 21.9 mph N/A   Scattered Clouds
11:15 AM 72.0 °F - 58.8 °F 63% 29.69 in 10.0 mi SSW 18.4 mph 21.9 mph N/A   Clear
11:35 AM 73.4 °F - 58.8 °F 60% 29.68 in 10.0 mi South 18.4 mph 23.0 mph N/A   Clear
11:55 AM 74.1 °F - 59.0 °F 59% 29.68 in 10.0 mi SSW 15.0 mph 21.9 mph N/A   Clear
12:15 PM 75.2 °F - 59.0 °F 57% 29.68 in 10.0 mi South 17.3 mph 24.2 mph N/A   Clear
12:35 PM 75.7 °F - 58.6 °F 55% 29.67 in 7.0 mi South 17.3 mph - N/A   Clear
12:55 PM 75.6 °F - 58.3 °F 55% 29.67 in 10.0 mi South 18.4 mph - N/A   Clear
1:15 PM 77.0 °F - 58.1 °F 52% 29.66 in 10.0 mi South 18.4 mph 21.9 mph N/A   Clear
1:35 PM 77.9 °F - 57.6 °F 49% 29.64 in 10.0 mi South 18.4 mph 24.2 mph N/A   Clear
1:55 PM 79.5 °F - 58.1 °F 48% 29.64 in 10.0 mi South 18.4 mph 24.2 mph N/A   Clear
2:15 PM 80.4 °F 81.0 °F 58.8 °F 48% 29.62 in 10.0 mi South 16.1 mph 20.7 mph N/A   Scattered Clouds
2:35 PM 80.4 °F 81.0 °F 59.2 °F 48% 29.62 in 10.0 mi South 13.8 mph 20.7 mph N/A   Scattered Clouds
2:55 PM 81.1 °F 81.5 °F 59.2 °F 47% 29.61 in 10.0 mi South 17.3 mph 24.2 mph N/A   Scattered Clouds
3:15 PM 83.1 °F 82.9 °F 58.6 °F 43% 29.60 in 10.0 mi SSW 17.3 mph - N/A   Scattered Clouds
3:35 PM 82.6 °F 82.3 °F 58.1 °F 43% 29.59 in 10.0 mi SSW 17.3 mph 25.3 mph N/A   Scattered Clouds
3:55 PM 81.9 °F 81.8 °F 58.1 °F 44% 29.59 in 10.0 mi South 16.1 mph 23.0 mph N/A   Scattered Clouds
4:15 PM 82.6 °F 82.5 °F 58.6 °F 44% 29.58 in 10.0 mi South 17.3 mph 21.9 mph N/A   Scattered Clouds
4:35 PM 82.8 °F 82.4 °F 57.6 °F 42% 29.58 in 10.0 mi South 13.8 mph 23.0 mph N/A   Mostly Cloudy
4:55 PM 81.1 °F 81.4 °F 58.5 °F 46% 29.57 in 10.0 mi South 15.0 mph 19.6 mph N/A   Scattered Clouds
5:15 PM 81.1 °F 81.5 °F 59.0 °F 47% 29.57 in 10.0 mi South 15.0 mph 24.2 mph N/A   Clear
5:35 PM 81.1 °F 81.5 °F 59.2 °F 47% 29.57 in 10.0 mi South 18.4 mph 26.5 mph N/A   Scattered Clouds
5:55 PM 81.0 °F 81.1 °F 57.6 °F 45% 29.57 in 10.0 mi South 18.4 mph 21.9 mph N/A   Mostly Cloudy
6:15 PM 81.3 °F 81.3 °F 57.7 °F 44% 29.56 in 10.0 mi South 20.7 mph - N/A   Scattered Clouds
6:35 PM 81.0 °F 81.1 °F 57.9 °F 45% 29.55 in 10.0 mi South 19.6 mph 28.8 mph N/A   Clear
6:55 PM 80.6 °F 81.0 °F 58.6 °F 47% 29.55 in 10.0 mi South 15.0 mph 19.6 mph N/A   Mostly Cloudy
7:15 PM 80.1 °F 80.7 °F 58.5 °F 48% 29.54 in 10.0 mi South 16.1 mph 23.0 mph N/A   Overcast
7:35 PM 79.7 °F - 58.5 °F 48% 29.55 in 10.0 mi SSE 17.3 mph 21.9 mph N/A   Overcast
7:55 PM 78.8 °F - 59.7 °F 52% 29.55 in 10.0 mi SSE 15.0 mph 23.0 mph N/A   Overcast
8:15 PM 77.4 °F - 60.8 °F 57% 29.53 in 10.0 mi SSE 20.7 mph 28.8 mph N/A   Mostly Cloudy
8:35 PM 76.1 °F - 62.2 °F 62% 29.54 in 10.0 mi SSE 17.3 mph 23.0 mph N/A Rain Light Rain
8:55 PM 75.0 °F - 63.0 °F 66% 29.53 in 10.0 mi SSE 18.4 mph 24.2 mph N/A Rain Light Rain
9:15 PM 75.0 °F - 62.6 °F 65% 29.55 in 10.0 mi South 15.0 mph - N/A   Mostly Cloudy
9:35 PM 75.6 °F - 62.2 °F 63% 29.57 in 10.0 mi South 16.1 mph 20.7 mph N/A   Overcast
9:55 PM 70.7 °F - 55.8 °F 59% 29.64 in 10.0 mi NNW 20.7 mph 34.5 mph N/A Rain Rain
10:15 PM 62.6 °F - 57.6 °F 84% 29.65 in 7.0 mi North 19.6 mph 32.2 mph 0.02 in Rain Light Rain
10:35 PM 61.7 °F - 58.5 °F 89% 29.62 in 4.0 mi North 15.0 mph 18.4 mph 0.07 in Rain , Thunderstorm Heavy Thunderstorms and Rain
10:55 PM 61.9 °F - 59.0 °F 90% 29.62 in 7.0 mi NE 9.2 mph - 0.09 in Rain Rain
11:15 PM 61.9 °F - 58.6 °F 89% 29.61 in 10.0 mi NE 9.2 mph - 0.01 in Rain Rain
11:35 PM 61.7 °F - 57.9 °F 87% 29.60 in 5.0 mi ENE 4.6 mph - 0.08 in Rain , Thunderstorm Heavy Thunderstorms and Rain
11:55 PM 61.3 °F - 57.7 °F 88% 29.59 in 10.0 mi ENE 9.2 mph - 0.09 in Rain , Thunderstorm Light Thunderstorms and Rain